TimeCST,TemperatureF,Dew PointF,Humidity,Sea Level PressureIn,VisibilityMPH,Wind Direction,Wind SpeedMPH,Gust SpeedMPH,PrecipitationIn,Events,Conditions,WindDirDegrees,DateUTC
12:00 AM,-18,-27,46,29.49,15,SW,2.3,,,,Mostly Cloudy,220,2013-11-14 06:00:00
12:00 AM,-16.6,-27.4,58,29.49,15.0,SW,2.3,-,N/A,,Mostly Cloudy,220,2013-11-14 06:00:00
1:00 AM,-20.2,-29.2,63,29.47,15.0,Calm,Calm,-,N/A,,Scattered Clouds,0,2013-11-14 07:00:00
1:37 AM,-9999,-9999,N/A,-9999,15.0,Calm,Calm,-,N/A,,Scattered Clouds,0,2013-11-14 07:37:00
2:00 AM,-18.4,-27.4,63,29.45,15.0,Calm,Calm,-,N/A,,Partly Cloudy,0,2013-11-14 08:00:00
3:00 AM,-18.4,-27.4,63,29.44,15.0,Calm,Calm,-,N/A,,Partly Cloudy,0,2013-11-14 09:00:00
4:00 AM,-18.4,-27.4,63,29.42,15.0,Calm,Calm,-,N/A,,Partly Cloudy,0,2013-11-14 10:00:00
5:00 AM,-16.6,-25.6,64,29.39,15.0,North,3.5,-,N/A,,Partly Cloudy,360,2013-11-14 11:00:00
6:00 AM,-16,-25,47,29.37,15,East,2.3,,,Snow,Snow,90,2013-11-14 12:00:00
6:00 AM,-16.6,-25.6,64,29.37,15.0,East,2.3,-,N/A,,Partly Cloudy,90,2013-11-14 12:00:00
7:00 AM,-20.2,-29.2,63,29.34,15.0,Calm,Calm,-,N/A,,Partly Cloudy,0,2013-11-14 13:00:00
8:00 AM,-20.2,-27.4,69,29.32,15.0,West,4.6,-,N/A,,Partly Cloudy,280,2013-11-14 14:00:00
9:00 AM,-20.2,-29.2,63,29.30,15.0,WNW,2.3,-,N/A,,Partly Cloudy,290,2013-11-14 15:00:00
10:00 AM,-20.2,-29.2,63,29.28,15.0,WNW,3.5,-,N/A,,Mostly Cloudy,290,2013-11-14 16:00:00
10:50 AM,-9999,-9999,N/A,-9999,15.0,WNW,4.6,-,N/A,,Unknown,290,2013-11-14 16:50:00
11:00 AM,-18.4,-29.2,58,29.26,15.0,WNW,4.6,-,N/A,Snow,Light Snow,290,2013-11-14 17:00:00
12:00 PM,-23,-32,45,29.24,15,West,5.8,,,Snow,Light Snow,270,2013-11-14 18:00:00
12:00 PM,-22.0,-31.0,63,29.24,15.0,West,5.8,-,N/A,Snow,Light Snow,280,2013-11-14 18:00:00
12:36 PM,-9999,-9999,N/A,-9999,15.0,WNW,5.8,-,N/A,,Mostly Cloudy,290,2013-11-14 18:36:00
1:00 PM,-18.4,-27.4,63,29.22,15.0,NNW,4.6,-,N/A,,Mostly Cloudy,330,2013-11-14 19:00:00
2:00 PM,-20.2,-29.2,63,29.21,15.0,WNW,5.8,-,N/A,,Mostly Cloudy,300,2013-11-14 20:00:00
3:00 PM,-25.6,-34.6,63,29.20,15.0,WNW,3.5,-,N/A,,Mostly Cloudy,300,2013-11-14 21:00:00
4:00 PM,-20.2,-27.4,69,29.19,15.0,WNW,4.6,-,N/A,,Mostly Cloudy,290,2013-11-14 22:00:00
5:00 PM,-23.8,-32.8,63,29.18,15.0,Calm,Calm,-,N/A,,Scattered Clouds,0,2013-11-14 23:00:00
6:00 PM,-25,-34,43,29.18,15,Calm,Calm,,,Snow,Snow,,2013-11-15 00:00:00
6:00 PM,-25.6,-34.6,63,29.18,15.0,Calm,Calm,-,N/A,,Partly Cloudy,0,2013-11-15 00:00:00
7:00 PM,-25.6,-32.8,69,29.18,15.0,SSE,2.3,-,N/A,,Partly Cloudy,160,2013-11-15 01:00:00
8:00 PM,-25.6,-34.6,63,29.18,15.0,ENE,2.3,-,N/A,,Partly Cloudy,70,2013-11-15 02:00:00
9:00 PM,-27.4,-34.6,69,29.18,15.0,Calm,Calm,-,N/A,,Scattered Clouds,0,2013-11-15 03:00:00